Holdrege, NE

4:29 PM CST on November 21, 2019 (GMT -0600)
Brewster

Weather History for KHDE - October, 2019

Change the Weather History Date:

Wednesday, October 23, 2019

  Actual Average Record
Temperature  
Mean Temperature 48 °F -  
Max Temperature 62 °F 64 °F 86 °F (1991)
Min Temperature 34 °F 37 °F 22 °F (1981)
Degree Days  
Heating Degree Days 16    
Moisture  
Dew Point 34 °F    
Average Humidity 55    
Maximum Humidity 80    
Minimum Humidity 31    
Precipitation  
Precipitation 0.00 in - - ()
Sea Level Pressure  
Sea Level Pressure 29.96 in    
Wind  
Wind Speed 11 mph ()    
Max Wind Speed 24 mph    
Max Gust Speed 32 mph    
Visibility 10.0 miles    
Events      
Averages and records for this station are not official NWS values.
T = Trace of Precipitation, MM = Missing Value Source: Averaged Metar Reports

Daily Weather History Graph

Daily Weather History Graph

Search for Another Location

Airport or City:

Astronomy

Oct. 23, 2019 Rise Set
Actual Time 7:56 AM CDT 6:45 PM CDT
Civil Twilight 7:28 AM CDT 7:13 PM CDT
Nautical Twilight 6:57 AM CDT 7:45 PM CDT
Astronomical Twilight 6:25 AM CDT 8:17 PM CDT
Moon 2:15 AM CDT (10/23) 4:38 PM CDT (10/23)
Length of Visible Light 11h 44m
Length of Day
10h 49m
Waning Crescent, 26% of the Moon is Illuminated
Oct 23
Waning Crescent
Oct 27
New
Nov 4
First Quarter
Nov 12
Full
Nov 19
Last Quarter

Hourly Weather History & Observations

Time (CDT) Temp. Windchill Dew Point Humidity Pressure Visibility Wind Dir Wind Speed Gust Speed Precip Events Conditions
12:15 AM 51.8 °F - 32.0 °F 47% 29.86 in 10.0 mi SSW 3.5 mph - N/A   Overcast
12:35 AM 51.6 °F - 32.0 °F 47% 29.84 in 10.0 mi South 4.6 mph - N/A   Overcast
12:55 AM 51.1 °F - 30.6 °F 45% 29.84 in 10.0 mi South 8.1 mph - N/A   Overcast
1:15 AM 52.7 °F - 28.9 °F 40% 29.83 in 10.0 mi South 6.9 mph - N/A   Overcast
1:35 AM 51.1 °F - 29.8 °F 44% 29.81 in 10.0 mi South 11.5 mph - N/A   Overcast
1:55 AM 49.6 °F - 30.0 °F 47% 29.80 in 10.0 mi South 8.1 mph - N/A   Mostly Cloudy
2:15 AM 49.3 °F - 31.1 °F 50% 29.80 in 10.0 mi South 6.9 mph - N/A   Clear
2:35 AM 48.9 °F - 31.6 °F 51% 29.80 in 10.0 mi South 4.6 mph - N/A   Scattered Clouds
2:55 AM 49.6 °F - 31.8 °F 50% 29.81 in 10.0 mi SSW 8.1 mph - N/A   Mostly Cloudy
3:15 AM 50.2 °F - 31.6 °F 49% 29.80 in 10.0 mi South 9.2 mph - N/A   Mostly Cloudy
3:35 AM 50.9 °F - 31.6 °F 48% 29.79 in 10.0 mi South 9.2 mph - N/A   Overcast
3:55 AM 50.9 °F - 31.6 °F 48% 29.79 in 10.0 mi SSW 6.9 mph - N/A   Mostly Cloudy
4:15 AM 50.0 °F - 32.0 °F 50% 29.78 in 10.0 mi SSW 8.1 mph - N/A   Scattered Clouds
4:35 AM 48.2 °F - 32.0 °F 54% 29.77 in 10.0 mi SW 8.1 mph - N/A   Scattered Clouds
4:55 AM 47.8 °F - 32.0 °F 54% 29.76 in 10.0 mi SW 8.1 mph - N/A   Clear
5:15 AM 48.2 °F - 32.0 °F 54% 29.77 in 10.0 mi WSW 9.2 mph - N/A   Clear
5:35 AM 50.5 °F - 32.2 °F 49% 29.77 in 10.0 mi WSW 11.5 mph - N/A   Clear
5:55 AM 51.4 °F - 32.5 °F 49% 29.79 in 10.0 mi West 15.0 mph - N/A   Clear
6:15 AM 51.3 °F - 34.0 °F 52% 29.79 in 10.0 mi West 15.0 mph - N/A   Clear
6:35 AM 51.3 °F - 35.6 °F 55% 29.80 in 10.0 mi West 13.8 mph 20.7 mph N/A   Clear
6:55 AM 49.6 °F - 36.3 °F 60% 29.80 in 10.0 mi WNW 12.7 mph - N/A   Clear
7:15 AM 49.6 °F - 38.3 °F 65% 29.82 in 10.0 mi WNW 12.7 mph 17.3 mph N/A   Clear
7:35 AM 49.3 °F - 39.2 °F 68% 29.83 in 10.0 mi NW 13.8 mph 20.7 mph N/A   Clear
7:55 AM 48.9 °F - 40.1 °F 72% 29.84 in 10.0 mi NW 13.8 mph 18.4 mph N/A   Clear
8:15 AM 48.6 °F - 40.3 °F 73% 29.87 in 10.0 mi NW 15.0 mph 19.6 mph N/A   Clear
8:35 AM 49.3 °F - 41.0 °F 73% 29.88 in 10.0 mi NW 17.3 mph 23.0 mph N/A   Clear
8:55 AM 48.9 °F - 40.3 °F 72% 29.89 in 10.0 mi NW 12.7 mph 19.6 mph N/A   Scattered Clouds
9:55 AM 51.4 °F - 41.0 °F 68% 29.93 in 10.0 mi WNW 19.6 mph 25.3 mph N/A   Clear
10:15 AM 52.7 °F - 40.3 °F 63% 29.94 in 10.0 mi NW 17.3 mph 20.7 mph N/A   Clear
10:35 AM 53.6 °F - 39.0 °F 58% 29.94 in 10.0 mi NW 16.1 mph 26.5 mph N/A   Clear
10:55 AM 54.0 °F - 38.5 °F 56% 29.94 in 10.0 mi NW 16.1 mph 26.5 mph N/A   Clear
11:35 AM 55.4 °F - 38.5 °F 53% 29.96 in 10.0 mi NNW 19.6 mph 28.8 mph N/A   Clear
11:55 AM 56.1 °F - 37.8 °F 50% 29.96 in 10.0 mi NNW 11.5 mph 28.8 mph N/A   Clear
12:15 PM 57.6 °F - 37.9 °F 48% 29.95 in 10.0 mi NW 16.1 mph 24.2 mph N/A   Clear
12:35 PM 57.7 °F - 36.7 °F 45% 29.95 in 10.0 mi NNW 12.7 mph 20.7 mph N/A   Clear
12:55 PM 58.8 °F - 36.5 °F 43% 29.96 in 10.0 mi NNW 12.7 mph 20.7 mph N/A   Clear
1:15 PM 58.8 °F - 36.7 °F 44% 29.95 in 10.0 mi NW 15.0 mph 19.6 mph N/A   Clear
1:35 PM 59.2 °F - 36.3 °F 43% 29.94 in 10.0 mi NW 11.5 mph 19.6 mph N/A   Clear
1:55 PM 60.3 °F - 35.2 °F 39% 29.95 in 10.0 mi NW 12.7 mph 26.5 mph N/A   Clear
2:15 PM 60.4 °F - 34.9 °F 38% 29.94 in 10.0 mi NW 17.3 mph 25.3 mph N/A   Clear
2:35 PM 61.2 °F - 34.3 °F 37% 29.93 in 10.0 mi WNW 17.3 mph 25.3 mph N/A   Clear
2:55 PM 61.9 °F - 33.3 °F 34% 29.93 in 10.0 mi WNW 18.4 mph 23.0 mph N/A   Clear
3:15 PM 62.4 °F - 32.9 °F 33% 29.93 in 10.0 mi WNW 20.7 mph 26.5 mph N/A   Scattered Clouds
3:35 PM 61.7 °F - 32.2 °F 33% 29.93 in 10.0 mi NW 20.7 mph 27.6 mph N/A   Clear
3:55 PM 61.7 °F - 32.0 °F 33% 29.94 in 10.0 mi WNW 18.4 mph 28.8 mph N/A   Clear
4:15 PM 61.7 °F - 31.5 °F 32% 29.95 in 10.0 mi NW 19.6 mph 26.5 mph N/A   Clear
4:35 PM 61.3 °F - 30.0 °F 31% 29.95 in 10.0 mi NW 24.2 mph 32.2 mph N/A   Clear
4:55 PM 61.0 °F - 30.0 °F 31% 29.96 in 10.0 mi NW 19.6 mph 31.1 mph N/A   Clear
5:15 PM 59.2 °F - 29.3 °F 32% 29.97 in 10.0 mi NW 18.4 mph 29.9 mph N/A   Clear
5:35 PM 58.6 °F - 30.7 °F 35% 29.99 in 10.0 mi North 17.3 mph 27.6 mph N/A   Clear
5:55 PM 55.4 °F - 36.3 °F 49% 30.01 in 10.0 mi North 18.4 mph 25.3 mph N/A   Clear
6:15 PM 54.5 °F - 36.3 °F 50% 30.04 in 10.0 mi NNW 20.7 mph 28.8 mph N/A   Clear
6:35 PM 51.8 °F - 36.0 °F 55% 30.06 in 10.0 mi North 18.4 mph 27.6 mph N/A   Clear
6:55 PM 50.5 °F - 35.4 °F 56% 30.08 in 10.0 mi NNW 17.3 mph 31.1 mph N/A   Clear
7:55 PM 41.5 °F 32.6 °F 34.7 °F 77% 30.16 in 10.0 mi North 19.6 mph 32.2 mph N/A   Mostly Cloudy
8:15 PM 40.3 °F 32.2 °F 33.8 °F 78% 30.19 in 10.0 mi North 15.0 mph 26.5 mph N/A   Overcast
8:35 PM 39.0 °F 29.0 °F 32.0 °F 76% 30.22 in 10.0 mi North 20.7 mph 32.2 mph N/A   Overcast
8:55 PM 38.5 °F 29.2 °F 31.1 °F 75% 30.23 in 10.0 mi North 17.3 mph 31.1 mph N/A   Overcast
9:15 PM 37.9 °F 28.2 °F 31.1 °F 76% 30.24 in 10.0 mi North 18.4 mph 25.3 mph N/A   Overcast
9:35 PM 37.0 °F 27.7 °F 29.7 °F 75% 30.27 in 10.0 mi North 16.1 mph 25.3 mph N/A   Overcast
9:55 PM 36.7 °F 26.9 °F 29.5 °F 75% 30.27 in 10.0 mi North 17.3 mph 24.2 mph N/A   Mostly Cloudy
10:15 PM 36.0 °F 26.0 °F 28.4 °F 74% 30.29 in 10.0 mi North 17.3 mph 26.5 mph N/A   Scattered Clouds
10:35 PM 35.6 °F 25.9 °F 28.9 °F 77% 30.31 in 10.0 mi North 16.1 mph 20.7 mph N/A   Scattered Clouds
10:55 PM 35.6 °F 27.1 °F 29.3 °F 78% 30.33 in 10.0 mi North 12.7 mph 21.9 mph N/A   Mostly Cloudy
11:15 PM 35.2 °F 26.2 °F 29.7 °F 80% 30.33 in 10.0 mi North 13.8 mph 20.7 mph N/A   Scattered Clouds
11:35 PM 35.6 °F 28.0 °F 29.7 °F 79% 30.32 in 10.0 mi North 10.4 mph 17.3 mph N/A   Mostly Cloudy
11:55 PM 34.9 °F 26.2 °F 29.3 °F 80% 30.31 in 10.0 mi North 12.7 mph 17.3 mph N/A   Mostly Cloudy